Weather History for Blythe, CA

Change the Weather History Date:

Saturday, November 16, 2013

  Actual Average Record
Temperature  
Mean Temperature 60 °F -  
Max Temperature 73 °F 74 °F 96 °F (1999)
Min Temperature 48 °F 48 °F 35 °F (1971)
Degree Days  
Heating Degree Days 4    
Growing Degree Days 10 (Base 50)    
Moisture  
Dew Point 41 °F    
Average Humidity 51    
Maximum Humidity 77    
Minimum Humidity 29    
Precipitation  
Precipitation 0.00 in - - ()
Sea Level Pressure  
Sea Level Pressure 29.75 in    
Wind  
Wind Speed 7 mph (WSW)    
Max Wind Speed 20 mph    
Max Gust Speed 24 mph    
Visibility 10 miles    
Events      
Averages and records for this station are not official NWS values.
T = Trace of Precipitation, MM = Missing Value Source: NWS Daily Summary

Daily Weather History Graph

Daily Weather History Graph

Search for Another Location

Airport:

Trip Planner

Search our weather history database for the weather conditions in past years. The results will help you decide how hot, cold, wet, or windy it might be!

Date:

Astronomy

Nov. 16, 2013 Rise Set
Actual Time 6:11 AM PST 4:35 PM PST
Civil Twilight 5:45 AM PST 5:01 PM PST
Nautical Twilight 5:15 AM PST 5:31 PM PST
Astronomical Twilight 4:45 AM PST 6:01 PM PST
Moon 4:11 PM PST (11/16) 5:14 AM PST (11/16)
Length of Visible Light 11h 16m
Length of Day
10h 23m
Waxing Gibbous, 99% of the Moon is Illuminated
Nov 16
Waxing Gibbous
Nov 17
Full
Nov 25
Last Quarter
Dec 2
New
Dec 9
First Quarter

Hourly Weather History & Observations

Time (PST) Temp. Dew Point Humidity Pressure Visibility Wind Dir Wind Speed Gust Speed Precip Events Conditions
12:52 AM 55.0 °F 44.1 °F 67% 29.64 in 10.0 mi North 6.9 mph - N/A   Clear
1:52 AM 53.1 °F 43.0 °F 69% 29.65 in 10.0 mi NNE 8.1 mph - N/A   Clear
2:52 AM 52.0 °F 42.1 °F 69% 29.67 in 10.0 mi Calm Calm - N/A   Clear
3:52 AM 50.0 °F 41.0 °F 71% 29.68 in 10.0 mi NNW 4.6 mph - N/A   Clear
4:52 AM 50.0 °F 41.0 °F 71% 29.69 in 10.0 mi NNW 4.6 mph - N/A   Clear
5:52 AM 48.0 °F 41.0 °F 77% 29.69 in 10.0 mi Calm Calm - N/A   Clear
6:52 AM 48.9 °F 39.9 °F 71% 29.72 in 10.0 mi North 5.8 mph - N/A   Clear
7:52 AM 55.9 °F 42.1 °F 60% 29.75 in 10.0 mi North 3.5 mph - N/A   Clear
8:52 AM 63.0 °F 45.0 °F 52% 29.77 in 10.0 mi Calm Calm - N/A   Clear
9:52 AM 69.1 °F 44.1 °F 40% 29.77 in 10.0 mi SSW 13.8 mph - N/A   Clear
10:52 AM 71.1 °F 42.1 °F 35% 29.77 in 10.0 mi SW 15.0 mph 21.9 mph N/A   Clear
11:52 AM 72.0 °F 41.0 °F 33% 29.75 in 10.0 mi SW 12.7 mph - N/A   Clear
12:52 PM 73.0 °F 41.0 °F 31% 29.72 in 10.0 mi SSW 18.4 mph - N/A   Clear
1:52 PM 73.0 °F 39.0 °F 29% 29.71 in 10.0 mi SSW 19.6 mph 24.2 mph N/A   Clear
2:52 PM 73.0 °F 39.0 °F 29% 29.71 in 10.0 mi SSW 15.0 mph 24.2 mph N/A   Clear
3:52 PM 71.1 °F 39.0 °F 31% 29.73 in 10.0 mi SSW 13.8 mph - N/A   Clear
4:52 PM 69.1 °F 39.0 °F 33% 29.75 in 10.0 mi SW 9.2 mph - N/A   Clear
5:52 PM 66.0 °F 39.9 °F 38% 29.76 in 10.0 mi WSW 9.2 mph - N/A   Clear
6:52 PM 64.9 °F 39.9 °F 40% 29.78 in 10.0 mi WSW 10.4 mph - N/A   Clear
7:52 PM 63.0 °F 41.0 °F 45% 29.79 in 10.0 mi WSW 8.1 mph - N/A   Clear
8:52 PM 61.0 °F 42.1 °F 50% 29.82 in 10.0 mi SW 6.9 mph - N/A   Clear
9:52 PM 57.0 °F 43.0 °F 59% 29.84 in 10.0 mi SSE 8.1 mph - N/A   Clear
10:52 PM 57.0 °F 43.0 °F 59% 29.85 in 10.0 mi SE 4.6 mph - N/A   Clear
11:52 PM 53.1 °F 41.0 °F 64% 29.87 in 10.0 mi Calm Calm - N/A   Clear